Location: *
(10.9500°N, 4.5092°W)
Time: 04:24:51
(UTC+00:00)

Daily predictions for brighter satellites

Satellite Brightness Start Highest point End
(mag) Time Altitude Azimuth Time Altitude Azimuth Time Altitude Azimuth
CZ-2C R/B 3.8 03:58:01 10° NNE 04:02:43 38° E 04:07:29 10° SSE
GPS 2-12 Rocket1 4.3 04:05:39 41° E 04:05:39 41° E 04:08:48 10° ENE
MSX 3.9 03:59:30 10° NNE 04:05:03 74° E 04:05:03 74° E
Cosmos 1680 Rocket 3.9 04:07:06 61° E 04:07:06 61° E 04:12:02 10° NNE
Atlas Centaur 2 4.2 04:05:46 19° N 04:08:31 25° NNE 04:14:34 10° ENE
CZ-3 R/B 4.3 03:24:31 10° WNW 04:10:18 52° N 04:20:35 10° E
Ariane H10+ 2.6 04:10:42 61° S 04:10:42 61° S 04:14:36 10° ESE
Hubble Space Telescope 3.5 04:16:14 11° NNE 04:16:22 11° NNE 04:17:43 10° NE
ATLAS 3B CENTAUR R/B 3.4 04:25:31 41° SW 04:25:49 41° SW 04:31:00 10° SSE
Meteor 1-11 Rocket 3.6 04:24:48 10° N 04:30:19 87° E 04:35:50 10° S
Cosmos 1340 3.4 04:27:27 10° N 04:31:07 51° E 04:34:47 10° SSE
CZ-4B R/B 3.6 04:35:47 10° NNE 04:39:15 81° NNE 04:39:15 81° NNE
Cosmos 1908 Rocket 3.8 04:36:32 10° N 04:40:51 68° E 04:45:11 10° S
Okean 1 3.4 04:37:56 12° S 04:41:34 74° E 04:45:30 10° N
Cosmos 1655 Rocket 4.4 04:42:17 38° WNW 04:42:17 38° WNW 04:47:31 10° NNW
Palapa 6 Rocket 2.8 04:42:26 57° N 04:42:46 61° NNE 04:46:41 10° E
Lacrosse 5 rocket 1.6 04:41:06 32° NNW 04:43:11 80° ENE 04:47:47 10° SSE
Cosmos 482 Debris 4.4 04:44:18 53° NW 04:45:14 86° SW 04:51:11 10° SE
Timation 2 Rocket 4.0 04:40:10 10° NNW 04:46:07 75° ENE 04:52:11 10° SSE
Meteor 1-31 Rocket 2.6 04:44:19 10° N 04:48:07 63° WNW 04:48:26 60° WSW
Cosmos 1697 Rocket 3.0 04:44:06 10° S 04:49:41 66° ESE 04:55:15 10° NNE
IUS-1 SRM-2 2.5 04:50:50 35° ESE 04:50:50 35° ESE 04:52:12 10° ESE
PSLV R/B 4.0 04:47:25 10° NNE 04:51:16 68° ESE 04:55:00 10° S
Meteor 1-18 Rocket 4.1 04:46:57 10° S 04:52:30 86° W 04:58:06 10° N
Delta 2 Rocket 4.4 04:50:51 36° W 04:52:35 48° NW 04:58:06 10° NE
Okean 3 4.3 04:52:05 10° S 04:56:07 52° E 05:00:10 10° NNE
MOS 1-B 4.5 04:52:22 10° NNE 04:58:10 78° ESE 05:03:58 10° S
S3M 3.9 04:54:51 10° N 05:01:05 73° W 05:07:24 10° S
ARIANE 5 DEB (SYLDA) 4.0 04:59:13 26° WSW 05:01:17 39° S 05:04:34 10° ESE
Cosmos 2292 Rocket 4.2 04:54:47 10° S 05:01:36 78° W 05:06:37 10° N
Okean O Rocket 3.0 05:02:21 10° NNE 05:06:32 41° E 05:10:42 10° S
Cosmos 1346 Rocket 3.3 05:03:44 10° NNW 05:07:28 36° W 05:11:10 10° SSW
Cosmos 1536 3.6 05:09:47 10° NNW 05:13:15 29° W 05:16:43 10° SSW
Cosmos 1484 Rocket 2.5 05:10:54 10° N 05:14:35 85° W 05:18:18 10° SSW
Cosmos 2369 3.8 05:11:28 10° SSW 05:16:57 53° WNW 05:22:27 10° N
Helios 1A Rocket 2.8 05:19:14 10° N 05:23:20 76° WNW 05:27:26 10° SSW
Cosmos 1782 Rocket 3.5 05:19:38 10° NNW 05:23:59 61° W 05:28:21 10° S
IUS-9 SRM-1 3.4 05:26:10 10° NW 05:27:27 15° N 05:29:31 10° NE
Cosmos 1980 Rocket 2.4 05:22:09 10° S 05:27:44 77° ESE 05:33:17 10° NNE
CZ-4B DEB 4.2 05:22:46 10° N 05:28:11 63° WNW 05:33:35 10° SSW
USA 229 DEB 3.5 05:22:13 10° SSW 05:28:42 81° WNW 05:35:17 10° NNE
USA 229 3.5 05:22:17 10° SSW 05:28:48 82° WNW 05:35:23 10° NNE
Cosmos 1674 Rocket 3.7 05:25:27 10° S 05:29:48 77° E 05:34:07 10° N
Cosmos 2084 Rocket 3.4 05:27:32 10° NNW 05:31:50 81° WSW 05:36:05 10° SSE
SJ-12 3.9 05:28:14 10° N 05:32:13 62° WNW 05:36:14 10° SSW
NOSS 3-1 (A) 4.2 05:28:32 10° S 05:33:33 47° ESE 05:38:42 10° NE
ARIANE 3 DEB 3.8 05:33:01 10° SW 05:34:47 15° SSW 05:36:16 10° SSE
Lacrosse 5 4.1 05:35:33 10° N 05:39:49 27° ENE 05:44:04 10° ESE
CZ-2C R/B 4.1 05:38:05 10° NW 05:40:35 14° WNW 05:43:06 10° WSW
FENGYUN 3A 3.7 05:37:56 10° NNE 05:43:21 88° WNW 05:48:47 10° SSW
GPS 2-04 Rocket1 4.3 05:41:24 10° W 05:44:27 20° SW 05:47:26 10° S
Stardust Del rocket 2.1 05:42:22 10° WSW 05:44:36 69° NNW 05:47:30 10° ENE
Cosmos 1743 2.7 05:41:24 10° NNW 05:45:13 60° W 05:49:01 10° S
GPS 2-12 Rocket1 3.9 05:43:06 10° W 05:47:39 41° NNW 05:52:10 10° ENE
METEOR-M 4.1 05:42:58 10° N 05:48:16 68° WNW 05:53:34 10° SSW
ARIANE DEB (SPELDA) 4.3 05:46:59 10° SW 05:48:56 13° SSW 05:50:20 10° SSE
Sich 1 Rocket 4.2 05:45:20 10° NNW 05:49:25 35° W 05:53:34 10° SSW
ARIANE 5 R/B 4.1 05:34:34 10° W 06:20:20 51° SSW 06:25:19 10° ESE
